Change the Weather History Date:

Thursday, February 21, 2013

  Actual Average Record
Temperature  
Mean Temperature 45 °F 49 °F  
Max Temperature 56 °F 59 °F 76 °F (1953)
Min Temperature 33 °F 40 °F 24 °F (2015)
Degree Days  
Heating Degree Days 20 16  
Month to date heating degree days 384 371  
Since 1 July heating degree days 1673 1839  
Cooling Degree Days 0 0  
Month to date cooling degree days 0 0  
Year to date cooling degree days 2 0  
Moisture  
Dew Point 30 °F    
Average Humidity 61    
Maximum Humidity 92    
Minimum Humidity 29    
Precipitation  
Precipitation 0.00 in 0.13 in 0.48 in (2008)
Month to date precipitation 2.62 2.55  
Year to date precipitation 3.26 6.24  
Sea Level Pressure  
Sea Level Pressure 30.16 in    
Wind  
Wind Speed 5 mph (ENE)    
Max Wind Speed 15 mph    
Max Gust Speed 20 mph    
Visibility 10 miles    
Events      
T = Trace of Precipitation, MM = Missing Value Source: NWS Daily Summary

Daily Weather History Graph

Daily Weather History Graph

Search for Another Location

Airport or City:

Trip Planner

Search our weather history database for the weather conditions in past years. The results will help you decide how hot, cold, wet, or windy it might be!

Date:

Astronomy

Feb. 21, 2013 Rise Set
Actual Time 6:52 AM EST 6:04 PM EST
Civil Twilight 6:27 AM EST 6:30 PM EST
Nautical Twilight 5:58 AM EST 6:59 PM EST
Astronomical Twilight 5:29 AM EST 7:28 PM EST
Moon 2:25 PM EST (2/21) 3:48 AM EST (2/21)
Length of Visible Light 12h 02m
Length of Day
11h 12m
Waxing Gibbous, 83% of the Moon is Illuminated
Feb 21
Waxing Gibbous
Feb 25
Full
Mar 4
Last Quarter
Mar 11
New
Mar 19
First Quarter

Hourly Weather History & Observations

Time (EST) Temp. Windchill Dew Point Humidity Pressure Visibility Wind Dir Wind Speed Gust Speed Precip Events Conditions
12:53 AM 37.0 °F - 35.1 °F 93% 30.11 in 10.0 mi Calm Calm - N/A   Clear
1:53 AM 36.0 °F - 34.0 °F 93% 30.12 in 10.0 mi Calm Calm - N/A   Clear
2:53 AM 36.0 °F - 34.0 °F 93% 30.11 in 10.0 mi Calm Calm - N/A   Clear
3:53 AM 37.9 °F 33.5 °F 33.1 °F 83% 30.12 in 10.0 mi North 5.8 mph - N/A   Clear
4:53 AM 37.0 °F 30.4 °F 27.0 °F 67% 30.14 in 10.0 mi NNE 9.2 mph - N/A   Clear
5:53 AM 36.0 °F 29.0 °F 23.0 °F 59% 30.16 in 10.0 mi NNE 9.2 mph - N/A   Clear
6:53 AM 36.0 °F 29.6 °F 21.0 °F 55% 30.17 in 10.0 mi NNE 8.1 mph - N/A   Clear
7:53 AM 37.9 °F 30.5 °F 19.0 °F 47% 30.18 in 10.0 mi NNE 11.5 mph - N/A   Clear
8:53 AM 43.0 °F 36.4 °F 19.0 °F 38% 30.20 in 10.0 mi NNE 12.7 mph - N/A   Clear
9:53 AM 46.0 °F 40.2 °F 19.0 °F 34% 30.21 in 10.0 mi NNE 12.7 mph - N/A   Clear
10:53 AM 50.0 °F - 19.0 °F 29% 30.20 in 10.0 mi NE 6.9 mph - N/A   Clear
11:53 AM 52.0 °F - 21.0 °F 30% 30.19 in 10.0 mi Calm Calm - N/A   Clear
12:53 PM 53.1 °F - 27.0 °F 37% 30.17 in 10.0 mi SSE 4.6 mph - N/A   Clear
1:53 PM 53.1 °F - 30.0 °F 41% 30.15 in 10.0 mi South 8.1 mph - N/A   Clear
2:53 PM 53.1 °F - 32.0 °F 45% 30.13 in 10.0 mi South 6.9 mph - N/A   Clear
3:53 PM 51.1 °F - 33.1 °F 50% 30.12 in 10.0 mi South 9.2 mph - N/A   Clear
4:53 PM 51.1 °F - 34.0 °F 52% 30.14 in 10.0 mi SSW 9.2 mph - N/A   Clear
5:53 PM 48.9 °F - 37.0 °F 64% 30.14 in 10.0 mi SSW 3.5 mph - N/A   Clear
6:53 PM 44.1 °F - 37.9 °F 79% 30.16 in 10.0 mi Calm Calm - N/A   Clear
7:53 PM 42.1 °F 40.2 °F 39.0 °F 89% 30.16 in 10.0 mi NE 3.5 mph - N/A   Clear
8:53 PM 42.1 °F - 37.9 °F 85% 30.18 in 10.0 mi Calm Calm - N/A   Clear
9:53 PM 39.9 °F 36.7 °F 37.0 °F 89% 30.19 in 10.0 mi NE 4.6 mph - N/A   Clear
10:53 PM 43.0 °F - 39.9 °F 89% 30.21 in 10.0 mi Calm Calm - N/A   Clear
11:53 PM 42.1 °F 39.2 °F 39.0 °F 89% 30.21 in 10.0 mi ENE 4.6 mph - N/A   Clear